Location: Az?znagar
(16.8373°N, 80.5091°E)
Time: 18:20:21
(UTC+00:00)

CZ-4C R/B - Pass Details

Date: 09 July 2022
Orbit: 395 x 462 km, 97.7° (Epoch: 09 August)

Event Time Altitude Azimuth Distance (km) Brightness Sun altitude
Rises 14:38:28 0° 343° (NNW) 2,471 7.4 -18.5°
Reaches altitude 10° 14:41:16 10° 317° (NW) 1,605 6.8 -19.0°
Maximum altitude 14:43:06 14° 285° (WNW) 1,389 6.4 -19.4°
Drops below altitude 10° 14:44:56 10° 253° (WSW) 1,611 6.2 -19.8°
Sets 14:47:46 0° 227° (SW) 2,486 6.9 -20.4°
